Time,TemperatureF,DewpointF,PressureIn,WindDirection,WindDirectionDegrees,WindSpeedMPH,WindSpeedGustMPH,Humidity,HourlyPrecipIn,Conditions,Clouds,dailyrainin,SoftwareType,DateUTC
2013-10-29 00:01:00,35.4,26.2,30.81,NNE,23,0.0,0.0,69,0.00,,,0.00,WUHU216HW,2013-10-29 04:01:00,
2013-10-29 00:06:00,35.4,26.2,30.81,NNE,23,0.0,0.0,69,0.00,,,0.00,WUHU216HW,2013-10-29 04:06:00,
2013-10-29 00:11:00,35.4,26.2,30.81,NNE,23,0.0,0.0,69,0.00,,,0.00,WUHU216HW,2013-10-29 04:11:00,
2013-10-29 00:16:00,35.4,26.2,30.81,NNE,23,0.0,0.0,69,0.00,,,0.00,WUHU216HW,2013-10-29 04:16:00,
2013-10-29 00:21:00,35.2,26.0,30.81,NNE,23,0.0,0.0,69,0.00,,,0.00,WUHU216HW,2013-10-29 04:21:00,
2013-10-29 00:26:00,35.2,26.0,30.81,NNE,23,0.0,0.0,69,0.00,,,0.00,WUHU216HW,2013-10-29 04:26:00,
2013-10-29 00:31:00,35.2,26.0,30.81,NNE,23,0.0,0.0,69,0.00,,,0.00,WUHU216HW,2013-10-29 04:31:00,
2013-10-29 00:36:00,35.2,26.0,30.81,NNE,23,0.0,0.0,69,0.00,,,0.00,WUHU216HW,2013-10-29 04:36:00,
2013-10-29 00:41:00,34.8,25.3,30.81,NNE,23,0.0,0.0,68,0.00,,,0.00,WUHU216HW,2013-10-29 04:41:00,
2013-10-29 00:46:00,34.8,25.7,30.81,NNE,23,0.0,0.0,69,0.00,,,0.00,WUHU216HW,2013-10-29 04:46:00,
2013-10-29 00:51:00,34.8,25.7,30.81,NNE,23,0.0,0.0,69,0.00,,,0.00,WUHU216HW,2013-10-29 04:51:00,
2013-10-29 00:56:00,34.8,25.7,30.81,NNE,23,0.0,0.0,69,0.00,,,0.00,WUHU216HW,2013-10-29 04:56:00,
2013-10-29 01:01:00,34.8,25.7,30.81,NNE,23,0.0,0.0,69,0.00,,,0.00,WUHU216HW,2013-10-29 05:01:00,
2013-10-29 01:06:00,34.8,25.7,30.81,NNE,23,0.0,0.0,69,0.00,,,0.00,WUHU216HW,2013-10-29 05:06:00,
2013-10-29 01:11:00,34.7,25.5,30.81,NNE,23,0.0,0.0,69,0.00,,,0.00,WUHU216HW,2013-10-29 05:11:00,
2013-10-29 01:16:00,34.7,25.5,30.81,NNE,23,0.0,0.0,69,0.00,,,0.00,WUHU216HW,2013-10-29 05:16:00,
2013-10-29 01:21:00,34.7,25.5,30.81,NNE,23,0.0,0.0,69,0.00,,,0.00,WUHU216HW,2013-10-29 05:21:00,
2013-10-29 01:26:00,34.7,25.5,30.81,NNE,23,0.0,0.0,69,0.00,,,0.00,WUHU216HW,2013-10-29 05:26:00,
2013-10-29 01:31:00,34.5,25.3,30.81,NNE,23,0.0,0.0,69,0.00,,,0.00,WUHU216HW,2013-10-29 05:31:00,
2013-10-29 01:36:00,34.5,25.3,30.81,NNE,23,0.0,0.0,69,0.00,,,0.00,WUHU216HW,2013-10-29 05:36:00,
2013-10-29 01:41:00,34.5,25.3,30.81,NNE,23,0.0,0.0,69,0.00,,,0.00,WUHU216HW,2013-10-29 05:41:00,
2013-10-29 01:46:00,34.3,25.1,30.81,NNE,23,0.0,0.0,69,0.00,,,0.00,WUHU216HW,2013-10-29 05:46:00,
2013-10-29 01:51:00,34.3,25.1,30.81,NNE,23,0.0,0.0,69,0.00,,,0.00,WUHU216HW,2013-10-29 05:51:00,
2013-10-29 01:56:00,34.3,25.1,30.80,NNE,23,0.0,0.0,69,0.00,,,0.00,WUHU216HW,2013-10-29 05:56:00,
2013-10-29 02:01:00,34.3,25.1,30.81,NNE,23,0.0,0.0,69,0.00,,,0.00,WUHU216HW,2013-10-29 06:01:00,
2013-10-29 02:06:00,34.3,25.1,30.81,NNE,23,0.0,0.0,69,0.00,,,0.00,WUHU216HW,2013-10-29 06:06:00,
2013-10-29 02:11:00,34.1,24.9,30.81,NNE,23,0.0,0.0,69,0.00,,,0.00,WUHU216HW,2013-10-29 06:11:00,
2013-10-29 02:16:00,34.1,24.9,30.81,NNE,23,0.0,0.0,69,0.00,,,0.00,WUHU216HW,2013-10-29 06:16:00,
2013-10-29 02:21:00,33.9,25.1,30.81,NNE,23,0.0,0.0,70,0.00,,,0.00,WUHU216HW,2013-10-29 06:21:00,
2013-10-29 02:26:00,33.9,25.1,30.81,NNE,23,0.0,0.0,70,0.00,,,0.00,WUHU216HW,2013-10-29 06:26:00,
2013-10-29 02:31:00,33.9,25.1,30.81,NNE,23,0.0,0.0,70,0.00,,,0.00,WUHU216HW,2013-10-29 06:31:00,
2013-10-29 02:36:00,33.9,25.1,30.81,NNE,23,0.0,0.0,70,0.00,,,0.00,WUHU216HW,2013-10-29 06:36:00,
2013-10-29 02:41:00,33.8,24.9,30.81,NNE,23,0.0,0.0,70,0.00,,,0.00,WUHU216HW,2013-10-29 06:41:00,
2013-10-29 02:46:00,33.8,24.9,30.81,NNE,23,0.0,0.0,70,0.00,,,0.00,WUHU216HW,2013-10-29 06:46:00,
2013-10-29 02:51:00,33.6,24.8,30.81,NNE,23,0.0,0.0,70,0.00,,,0.00,WUHU216HW,2013-10-29 06:51:00,
2013-10-29 02:56:00,33.6,25.1,30.81,NNE,23,0.0,0.0,71,0.00,,,0.00,WUHU216HW,2013-10-29 06:56:00,
2013-10-29 03:01:00,33.6,25.1,30.81,NNE,23,0.0,0.0,71,0.00,,,0.00,WUHU216HW,2013-10-29 07:01:00,
2013-10-29 03:06:00,33.4,24.9,30.81,NNE,23,0.0,0.0,71,0.00,,,0.00,WUHU216HW,2013-10-29 07:06:00,
2013-10-29 03:11:00,33.4,24.9,30.81,NNE,23,0.0,0.0,71,0.00,,,0.00,WUHU216HW,2013-10-29 07:11:00,
2013-10-29 03:16:00,33.2,24.8,30.81,NNE,23,0.0,0.0,71,0.00,,,0.00,WUHU216HW,2013-10-29 07:16:00,
2013-10-29 03:21:00,33.0,24.6,30.81,NNE,23,0.0,0.0,71,0.00,,,0.00,WUHU216HW,2013-10-29 07:21:00,
2013-10-29 03:26:00,33.0,24.6,30.81,NNE,23,0.0,0.0,71,0.00,,,0.00,WUHU216HW,2013-10-29 07:26:00,
2013-10-29 03:31:00,32.7,24.3,30.81,NNE,23,0.0,0.0,71,0.00,,,0.00,WUHU216HW,2013-10-29 07:31:00,
2013-10-29 03:36:00,32.7,24.3,30.81,NNE,23,0.0,0.0,71,0.00,,,0.00,WUHU216HW,2013-10-29 07:36:00,
2013-10-29 03:41:00,32.5,24.1,30.81,NNE,23,0.0,0.0,71,0.00,,,0.00,WUHU216HW,2013-10-29 07:41:00,
2013-10-29 03:46:00,32.3,24.3,30.81,NNE,23,0.0,0.0,72,0.00,,,0.00,WUHU216HW,2013-10-29 07:46:00,
2013-10-29 03:51:00,32.1,24.1,30.81,NNE,23,0.0,0.0,72,0.00,,,0.00,WUHU216HW,2013-10-29 07:51:00,
2013-10-29 03:56:00,31.8,23.8,30.81,NNE,23,0.0,0.0,72,0.00,,,0.00,WUHU216HW,2013-10-29 07:56:00,
2013-10-29 04:01:00,31.6,23.6,30.81,NNE,23,0.0,0.0,72,0.00,,,0.00,WUHU216HW,2013-10-29 08:01:00,
2013-10-29 04:06:00,31.6,23.6,30.82,NNE,23,0.0,0.0,72,0.00,,,0.00,WUHU216HW,2013-10-29 08:06:00,
2013-10-29 04:11:00,31.2,23.2,30.81,NNE,23,0.0,0.0,72,0.00,,,0.00,WUHU216HW,2013-10-29 08:11:00,
2013-10-29 04:16:00,31.2,23.2,30.81,NNE,23,0.0,0.0,72,0.00,,,0.00,WUHU216HW,2013-10-29 08:16:00,
2013-10-29 04:21:00,31.1,23.1,30.82,NNE,23,0.0,0.0,72,0.00,,,0.00,WUHU216HW,2013-10-29 08:21:00,
2013-10-29 04:26:00,30.9,23.2,30.81,NNE,23,0.0,0.0,73,0.00,,,0.00,WUHU216HW,2013-10-29 08:26:00,
2013-10-29 04:31:00,30.9,23.2,30.81,NNE,23,0.0,0.0,73,0.00,,,0.00,WUHU216HW,2013-10-29 08:31:00,
2013-10-29 04:36:00,30.7,23.0,30.82,NNE,23,0.0,0.0,73,0.00,,,0.00,WUHU216HW,2013-10-29 08:36:00,
2013-10-29 04:41:00,30.7,23.0,30.81,NNE,23,0.0,0.0,73,0.00,,,0.00,WUHU216HW,2013-10-29 08:41:00,
2013-10-29 04:46:00,30.7,23.0,30.82,NNE,23,0.0,0.0,73,0.00,,,0.00,WUHU216HW,2013-10-29 08:46:00,
2013-10-29 04:51:00,30.7,23.0,30.81,NNE,23,0.0,0.0,73,0.00,,,0.00,WUHU216HW,2013-10-29 08:51:00,
2013-10-29 04:56:00,30.7,23.0,30.81,NNE,23,0.0,0.0,73,0.00,,,0.00,WUHU216HW,2013-10-29 08:56:00,
2013-10-29 05:01:00,30.5,22.8,30.81,NNE,23,0.0,0.0,73,0.00,,,0.00,WUHU216HW,2013-10-29 09:01:00,
2013-10-29 05:06:00,30.5,23.2,30.81,NNE,23,0.0,0.0,74,0.00,,,0.00,WUHU216HW,2013-10-29 09:06:00,
2013-10-29 05:11:00,30.3,23.0,30.81,NNE,23,0.0,0.0,74,0.00,,,0.00,WUHU216HW,2013-10-29 09:11:00,
2013-10-29 05:16:00,30.3,23.0,30.81,NNE,23,0.0,0.0,74,0.00,,,0.00,WUHU216HW,2013-10-29 09:16:00,
2013-10-29 05:21:00,30.3,23.0,30.81,NNE,23,0.0,0.0,74,0.00,,,0.00,WUHU216HW,2013-10-29 09:21:00,
2013-10-29 05:26:00,30.0,22.6,30.81,NNE,23,0.0,0.0,74,0.00,,,0.00,WUHU216HW,2013-10-29 09:26:00,
2013-10-29 05:31:00,30.0,22.6,30.81,NNE,23,0.0,0.0,74,0.00,,,0.00,WUHU216HW,2013-10-29 09:31:00,
2013-10-29 05:36:00,30.0,22.6,30.81,NNE,23,0.0,0.0,74,0.00,,,0.00,WUHU216HW,2013-10-29 09:36:00,
2013-10-29 05:41:00,30.0,22.6,30.81,NNE,23,0.0,0.0,74,0.00,,,0.00,WUHU216HW,2013-10-29 09:41:00,
2013-10-29 05:46:00,30.0,22.6,30.81,NNE,23,0.0,0.0,74,0.00,,,0.00,WUHU216HW,2013-10-29 09:46:00,
2013-10-29 05:51:00,30.0,22.6,30.81,NNE,23,0.0,0.0,74,0.00,,,0.00,WUHU216HW,2013-10-29 09:51:00,
2013-10-29 05:56:00,30.0,22.6,30.81,NNE,23,0.0,0.0,74,0.00,,,0.00,WUHU216HW,2013-10-29 09:56:00,
2013-10-29 06:01:00,29.8,22.8,30.81,NNE,23,0.0,0.0,75,0.00,,,0.00,WUHU216HW,2013-10-29 10:01:00,
2013-10-29 06:06:00,29.6,22.6,30.81,NNE,23,0.0,0.0,75,0.00,,,0.00,WUHU216HW,2013-10-29 10:06:00,
2013-10-29 06:11:00,29.6,22.6,30.81,NNE,23,0.0,0.0,75,0.00,,,0.00,WUHU216HW,2013-10-29 10:11:00,
2013-10-29 06:16:00,29.4,22.4,30.82,NNE,23,0.0,0.0,75,0.00,,,0.00,WUHU216HW,2013-10-29 10:16:00,
2013-10-29 06:21:00,29.4,22.4,30.82,NNE,23,0.0,0.0,75,0.00,,,0.00,WUHU216HW,2013-10-29 10:21:00,
2013-10-29 06:26:00,29.4,22.4,30.82,NNE,23,0.0,0.0,75,0.00,,,0.00,WUHU216HW,2013-10-29 10:26:00,
2013-10-29 06:31:00,29.3,22.3,30.82,NNE,23,0.0,0.0,75,0.00,,,0.00,WUHU216HW,2013-10-29 10:31:00,
2013-10-29 06:36:00,29.3,22.3,30.82,NNE,23,0.0,0.0,75,0.00,,,0.00,WUHU216HW,2013-10-29 10:36:00,
2013-10-29 06:41:00,29.1,22.1,30.82,NNE,23,0.0,0.0,75,0.00,,,0.00,WUHU216HW,2013-10-29 10:41:00,
2013-10-29 06:46:00,29.1,22.6,30.82,NNE,23,0.0,0.0,76,0.00,,,0.00,WUHU216HW,2013-10-29 10:46:00,
2013-10-29 06:51:00,29.1,22.4,30.82,NNE,23,0.0,0.0,76,0.00,,,0.00,WUHU216HW,2013-10-29 10:51:00,
2013-10-29 06:56:00,29.1,22.4,30.83,NNE,23,0.0,0.0,76,0.00,,,0.00,WUHU216HW,2013-10-29 10:56:00,
2013-10-29 07:01:00,29.1,22.4,30.82,NNE,23,0.0,0.0,76,0.00,,,0.00,WUHU216HW,2013-10-29 11:01:00,
2013-10-29 07:06:00,29.1,22.4,30.82,NNE,23,0.0,0.0,76,0.00,,,0.00,WUHU216HW,2013-10-29 11:06:00,
2013-10-29 07:11:00,29.1,22.4,30.82,NNE,23,0.0,0.0,76,0.00,,,0.00,WUHU216HW,2013-10-29 11:11:00,
2013-10-29 07:16:00,29.1,22.4,30.82,NNE,23,0.0,0.0,76,0.00,,,0.00,WUHU216HW,2013-10-29 11:16:00,
2013-10-29 07:21:00,29.1,22.4,30.81,NNE,23,0.0,0.0,76,0.00,,,0.00,WUHU216HW,2013-10-29 11:21:00,
2013-10-29 07:26:00,29.1,22.4,30.81,NNE,23,0.0,0.0,76,0.00,,,0.00,WUHU216HW,2013-10-29 11:26:00,
2013-10-29 07:31:00,29.1,22.4,30.81,NNE,23,0.0,0.0,76,0.00,,,0.00,WUHU216HW,2013-10-29 11:31:00,
2013-10-29 07:36:00,29.1,22.4,30.81,NNE,23,0.0,0.0,76,0.00,,,0.00,WUHU216HW,2013-10-29 11:36:00,
2013-10-29 07:41:00,29.1,22.1,30.81,NNE,23,0.0,0.0,75,0.00,,,0.00,WUHU216HW,2013-10-29 11:41:00,
2013-10-29 07:46:00,29.1,22.1,30.81,NNE,23,0.0,0.0,75,0.00,,,0.00,WUHU216HW,2013-10-29 11:46:00,
2013-10-29 07:51:00,29.1,22.1,30.81,NNE,23,0.0,0.0,75,0.00,,,0.00,WUHU216HW,2013-10-29 11:51:00,
2013-10-29 07:56:00,29.1,22.1,30.81,NNE,23,0.0,0.0,75,0.00,,,0.00,WUHU216HW,2013-10-29 11:56:00,
2013-10-29 08:01:00,29.1,22.1,30.81,NNE,23,0.0,0.0,75,0.00,,,0.00,WUHU216HW,2013-10-29 12:01:00,
2013-10-29 08:06:00,28.9,21.6,30.81,NNE,23,0.0,0.0,74,0.00,,,0.00,WUHU216HW,2013-10-29 12:06:00,
2013-10-29 08:11:00,28.9,21.6,30.81,NNE,23,0.0,0.0,74,0.00,,,0.00,WUHU216HW,2013-10-29 12:11:00,
2013-10-29 08:16:00,28.9,21.6,30.81,NNE,23,0.0,0.0,74,0.00,,,0.00,WUHU216HW,2013-10-29 12:16:00,
2013-10-29 08:21:00,28.9,21.6,30.81,NNE,23,0.0,0.0,74,0.00,,,0.00,WUHU216HW,2013-10-29 12:21:00,
2013-10-29 08:26:00,28.9,21.6,30.81,NNE,23,0.0,0.0,74,0.00,,,0.00,WUHU216HW,2013-10-29 12:26:00,
2013-10-29 08:31:00,28.9,21.6,30.81,NNE,23,0.0,0.0,74,0.00,,,0.00,WUHU216HW,2013-10-29 12:31:00,
2013-10-29 08:36:00,29.1,21.8,30.82,NNE,23,0.0,0.0,74,0.00,,,0.00,WUHU216HW,2013-10-29 12:36:00,
2013-10-29 08:41:00,29.1,21.8,30.82,NNE,23,0.0,0.0,74,0.00,,,0.00,WUHU216HW,2013-10-29 12:41:00,
2013-10-29 08:46:00,29.1,21.8,30.81,NNE,23,0.0,0.0,74,0.00,,,0.00,WUHU216HW,2013-10-29 12:46:00,
2013-10-29 08:51:00,29.1,21.8,30.81,NNE,23,0.0,0.0,74,0.00,,,0.00,WUHU216HW,2013-10-29 12:51:00,
2013-10-29 08:56:00,29.1,21.8,30.82,NNE,23,0.0,0.0,74,0.00,,,0.00,WUHU216HW,2013-10-29 12:56:00,
2013-10-29 09:01:00,29.3,22.0,30.81,NNE,23,0.0,0.0,74,0.00,,,0.00,WUHU216HW,2013-10-29 13:01:00,
2013-10-29 09:06:00,29.4,22.1,30.82,NNE,23,0.0,0.0,74,0.00,,,0.00,WUHU216HW,2013-10-29 13:06:00,
2013-10-29 09:11:00,29.6,22.3,30.82,NNE,23,0.0,0.0,74,0.00,,,0.00,WUHU216HW,2013-10-29 13:11:00,
2013-10-29 09:16:00,29.8,22.5,30.83,NNE,23,0.0,0.0,74,0.00,,,0.00,WUHU216HW,2013-10-29 13:16:00,
2013-10-29 09:21:00,30.0,22.6,30.83,NNE,23,0.0,0.0,74,0.00,,,0.00,WUHU216HW,2013-10-29 13:21:00,
2013-10-29 09:26:00,30.0,22.6,30.82,NNE,23,0.0,0.0,74,0.00,,,0.00,WUHU216HW,2013-10-29 13:26:00,
2013-10-29 09:31:00,30.2,22.8,30.82,NNE,23,0.0,0.0,74,0.00,,,0.00,WUHU216HW,2013-10-29 13:31:00,
2013-10-29 09:36:00,30.3,23.0,30.82,NNE,23,0.0,0.0,74,0.00,,,0.00,WUHU216HW,2013-10-29 13:36:00,
2013-10-29 09:41:00,30.5,23.2,30.82,NNE,23,0.0,0.0,74,0.00,,,0.00,WUHU216HW,2013-10-29 13:41:00,
2013-10-29 09:46:00,30.7,23.3,30.83,NNE,23,0.0,0.0,74,0.00,,,0.00,WUHU216HW,2013-10-29 13:46:00,
2013-10-29 09:51:00,30.9,23.5,30.83,NNE,23,0.0,0.0,74,0.00,,,0.00,WUHU216HW,2013-10-29 13:51:00,
2013-10-29 09:56:00,31.2,23.6,30.83,NNE,23,0.0,0.0,73,0.00,,,0.00,WUHU216HW,2013-10-29 13:56:00,
2013-10-29 10:01:00,31.6,23.9,30.84,NNE,23,0.0,0.0,73,0.00,,,0.00,WUHU216HW,2013-10-29 14:01:00,
2013-10-29 10:06:00,31.6,23.9,30.84,NNE,23,0.0,0.0,73,0.00,,,0.00,WUHU216HW,2013-10-29 14:06:00,
2013-10-29 10:11:00,31.8,24.1,30.84,NNE,23,0.0,0.0,73,0.00,,,0.00,WUHU216HW,2013-10-29 14:11:00,
2013-10-29 10:16:00,32.1,24.4,30.84,NNE,23,0.0,0.0,73,0.00,,,0.00,WUHU216HW,2013-10-29 14:16:00,
2013-10-29 10:21:00,32.5,24.8,30.84,NNE,23,0.0,0.0,73,0.00,,,0.00,WUHU216HW,2013-10-29 14:21:00,
2013-10-29 10:26:00,32.7,24.9,30.84,NNE,23,0.0,0.0,73,0.00,,,0.00,WUHU216HW,2013-10-29 14:26:00,
2013-10-29 10:31:00,33.0,24.9,30.83,NNE,23,0.0,0.0,72,0.00,,,0.00,WUHU216HW,2013-10-29 14:31:00,
2013-10-29 10:36:00,33.0,24.9,30.83,NNE,23,0.0,0.0,72,0.00,,,0.00,WUHU216HW,2013-10-29 14:36:00,
2013-10-29 10:41:00,33.4,25.6,30.83,NNE,23,0.0,0.0,73,0.00,,,0.00,WUHU216HW,2013-10-29 14:41:00,
2013-10-29 10:46:00,33.6,25.7,30.83,NNE,23,0.0,0.0,73,0.00,,,0.00,WUHU216HW,2013-10-29 14:46:00,
2013-10-29 10:51:00,33.9,25.8,30.83,NNE,23,0.0,0.0,72,0.00,,,0.00,WUHU216HW,2013-10-29 14:51:00,
2013-10-29 10:56:00,34.3,26.1,30.83,NNE,23,0.0,0.0,72,0.00,,,0.00,WUHU216HW,2013-10-29 14:56:00,
2013-10-29 11:01:00,34.3,26.1,30.83,NNE,23,0.0,0.0,72,0.00,,,0.00,WUHU216HW,2013-10-29 15:01:00,
2013-10-29 11:06:00,34.5,26.3,30.83,NNE,23,0.0,0.0,72,0.00,,,0.00,WUHU216HW,2013-10-29 15:06:00,
2013-10-29 11:11:00,34.8,26.7,30.82,NNE,23,0.0,0.0,72,0.00,,,0.00,WUHU216HW,2013-10-29 15:11:00,
2013-10-29 11:16:00,34.8,26.7,30.83,NNE,23,0.0,0.0,72,0.00,,,0.00,WUHU216HW,2013-10-29 15:16:00,
2013-10-29 11:21:00,35.4,27.2,30.82,NNE,23,0.0,0.0,72,0.00,,,0.00,WUHU216HW,2013-10-29 15:21:00,
2013-10-29 11:26:00,35.4,27.2,30.82,NNE,23,0.0,0.0,72,0.00,,,0.00,WUHU216HW,2013-10-29 15:26:00,
2013-10-29 11:31:00,35.7,27.2,30.82,NNE,23,0.0,0.0,71,0.00,,,0.00,WUHU216HW,2013-10-29 15:31:00,
2013-10-29 11:36:00,35.7,27.2,30.82,NNE,23,0.0,0.0,71,0.00,,,0.00,WUHU216HW,2013-10-29 15:36:00,
2013-10-29 11:41:00,35.9,27.4,30.81,NNE,23,0.0,0.0,71,0.00,,,0.00,WUHU216HW,2013-10-29 15:41:00,
2013-10-29 11:46:00,36.3,27.8,30.81,NNE,23,0.0,0.0,71,0.00,,,0.00,WUHU216HW,2013-10-29 15:46:00,
2013-10-29 11:51:00,36.3,27.8,30.81,NNE,23,0.0,0.0,71,0.00,,,0.00,WUHU216HW,2013-10-29 15:51:00,
2013-10-29 11:56:00,36.8,28.3,30.81,NNE,23,0.0,0.0,71,0.00,,,0.00,WUHU216HW,2013-10-29 15:56:00,
2013-10-29 12:01:00,37.2,28.7,30.81,NNE,23,0.0,0.0,71,0.00,,,0.00,WUHU216HW,2013-10-29 16:01:00,
2013-10-29 12:06:00,37.5,29.0,30.81,NNE,23,0.0,0.0,71,0.00,,,0.00,WUHU216HW,2013-10-29 16:06:00,
2013-10-29 12:11:00,37.9,29.3,30.81,NNE,23,0.0,0.0,71,0.00,,,0.00,WUHU216HW,2013-10-29 16:11:00,
2013-10-29 12:16:00,37.9,29.0,30.81,NNE,23,0.0,0.0,70,0.00,,,0.00,WUHU216HW,2013-10-29 16:16:00,
2013-10-29 12:21:00,38.1,29.2,30.81,NNE,23,0.0,0.0,70,0.00,,,0.00,WUHU216HW,2013-10-29 16:21:00,
2013-10-29 12:26:00,38.8,30.2,30.80,NNE,23,0.0,0.0,71,0.00,,,0.00,WUHU216HW,2013-10-29 16:26:00,
2013-10-29 12:31:00,39.0,30.3,30.80,NNE,23,0.0,0.0,71,0.00,,,0.00,WUHU216HW,2013-10-29 16:31:00,
2013-10-29 12:36:00,39.3,30.3,30.80,NNE,23,0.0,0.0,70,0.00,,,0.00,WUHU216HW,2013-10-29 16:36:00,
2013-10-29 12:41:00,39.5,30.8,30.79,NNE,23,0.0,0.0,71,0.00,,,0.00,WUHU216HW,2013-10-29 16:41:00,
2013-10-29 12:46:00,39.9,31.2,30.79,NNE,23,0.0,0.0,71,0.00,,,0.00,WUHU216HW,2013-10-29 16:46:00,
2013-10-29 12:51:00,40.1,31.4,30.79,NNE,23,0.0,0.0,71,0.00,,,0.00,WUHU216HW,2013-10-29 16:51:00,
2013-10-29 12:56:00,40.2,31.2,30.78,NNE,23,0.0,0.0,70,0.00,,,0.00,WUHU216HW,2013-10-29 16:56:00,
2013-10-29 13:01:00,40.4,31.4,30.78,NNE,23,0.0,0.0,70,0.00,,,0.00,WUHU216HW,2013-10-29 17:01:00,
2013-10-29 13:06:00,40.6,31.6,30.78,NNE,23,0.0,0.0,70,0.00,,,0.00,WUHU216HW,2013-10-29 17:06:00,
2013-10-29 13:11:00,40.6,31.6,30.78,NNE,23,0.0,0.0,70,0.00,,,0.00,WUHU216HW,2013-10-29 17:11:00,
2013-10-29 13:16:00,40.8,31.8,30.77,NNE,23,0.0,0.0,70,0.00,,,0.00,WUHU216HW,2013-10-29 17:16:00,
2013-10-29 13:21:00,40.8,31.8,30.77,NNE,23,0.0,0.0,70,0.00,,,0.00,WUHU216HW,2013-10-29 17:21:00,
2013-10-29 13:26:00,40.8,31.8,30.76,NNE,23,0.0,0.0,70,0.00,,,0.00,WUHU216HW,2013-10-29 17:26:00,
2013-10-29 13:31:00,41.0,32.3,30.76,NNE,23,0.0,0.0,71,0.00,,,0.00,WUHU216HW,2013-10-29 17:31:00,
2013-10-29 13:36:00,41.3,32.3,30.76,NNE,23,0.0,0.0,71,0.00,,,0.00,WUHU216HW,2013-10-29 17:36:00,
2013-10-29 13:41:00,41.5,32.5,30.75,NE,45,0.0,0.0,70,0.00,,,0.00,WUHU216HW,2013-10-29 17:41:00,
2013-10-29 13:46:00,41.5,32.5,30.76,NE,45,0.0,0.0,70,0.00,,,0.00,WUHU216HW,2013-10-29 17:46:00,
2013-10-29 13:51:00,41.7,32.7,30.76,NE,45,0.0,0.0,70,0.00,,,0.00,WUHU216HW,2013-10-29 17:51:00,
2013-10-29 13:56:00,41.7,32.7,30.75,NE,45,0.0,0.0,70,0.00,,,0.00,WUHU216HW,2013-10-29 17:56:00,
2013-10-29 14:01:00,41.7,32.7,30.75,NE,45,0.0,0.0,70,0.00,,,0.00,WUHU216HW,2013-10-29 18:01:00,
2013-10-29 14:06:00,41.7,32.7,30.75,NE,45,0.0,0.0,70,0.00,,,0.00,WUHU216HW,2013-10-29 18:06:00,
2013-10-29 14:11:00,41.9,32.9,30.74,NE,45,0.0,0.0,70,0.00,,,0.00,WUHU216HW,2013-10-29 18:11:00,
2013-10-29 14:16:00,41.9,32.9,30.74,NE,45,0.0,0.0,70,0.00,,,0.00,WUHU216HW,2013-10-29 18:16:00,
2013-10-29 14:21:00,42.0,33.0,30.74,NE,45,0.0,0.0,70,0.00,,,0.00,WUHU216HW,2013-10-29 18:21:00,
2013-10-29 14:26:00,42.2,33.2,30.74,NE,45,0.0,0.0,70,0.00,,,0.00,WUHU216HW,2013-10-29 18:26:00,
2013-10-29 14:31:00,42.4,33.4,30.74,NE,45,0.0,0.0,70,0.00,,,0.00,WUHU216HW,2013-10-29 18:31:00,
2013-10-29 14:36:00,42.4,33.0,30.74,NE,45,0.0,0.0,69,0.00,,,0.00,WUHU216HW,2013-10-29 18:36:00,
2013-10-29 14:41:00,42.4,33.0,30.74,NE,45,0.0,0.0,69,0.00,,,0.00,WUHU216HW,2013-10-29 18:41:00,
2013-10-29 14:46:00,42.4,33.0,30.74,NE,45,0.0,0.0,69,0.00,,,0.00,WUHU216HW,2013-10-29 18:46:00,
2013-10-29 14:51:00,42.4,33.0,30.74,NE,45,0.0,0.0,69,0.00,,,0.00,WUHU216HW,2013-10-29 18:51:00,
2013-10-29 14:56:00,42.4,33.0,30.74,NE,45,0.0,0.0,69,0.00,,,0.00,WUHU216HW,2013-10-29 18:56:00,
2013-10-29 15:01:00,42.4,33.0,30.74,NE,45,0.0,0.0,69,0.00,,,0.00,WUHU216HW,2013-10-29 19:01:00,
2013-10-29 15:06:00,42.4,33.0,30.73,NE,45,0.0,0.0,69,0.00,,,0.00,WUHU216HW,2013-10-29 19:06:00,
2013-10-29 15:11:00,42.4,33.0,30.73,NE,45,0.0,0.0,69,0.00,,,0.00,WUHU216HW,2013-10-29 19:11:00,
2013-10-29 15:16:00,42.4,33.0,30.74,NE,45,0.0,0.0,69,0.00,,,0.00,WUHU216HW,2013-10-29 19:16:00,
2013-10-29 15:21:00,42.4,32.6,30.73,NE,45,0.0,0.0,68,0.00,,,0.00,WUHU216HW,2013-10-29 19:21:00,
2013-10-29 15:26:00,42.4,32.6,30.73,NE,45,0.0,0.0,68,0.00,,,0.00,WUHU216HW,2013-10-29 19:26:00,
2013-10-29 15:31:00,42.4,32.6,30.73,NE,45,0.0,0.0,68,0.00,,,0.00,WUHU216HW,2013-10-29 19:31:00,
2013-10-29 15:36:00,42.2,32.6,30.73,NE,45,0.0,0.0,69,0.00,,,0.00,WUHU216HW,2013-10-29 19:36:00,
2013-10-29 15:41:00,41.9,32.5,30.73,NE,45,0.0,0.0,69,0.00,,,0.00,WUHU216HW,2013-10-29 19:41:00,
2013-10-29 15:46:00,41.7,32.7,30.73,NE,45,0.0,0.0,70,0.00,,,0.00,WUHU216HW,2013-10-29 19:46:00,
2013-10-29 15:51:00,41.5,32.8,30.73,NE,45,0.0,0.0,71,0.00,,,0.00,WUHU216HW,2013-10-29 19:51:00,
2013-10-29 15:56:00,41.1,32.8,30.73,NE,45,0.0,0.0,72,0.00,,,0.00,WUHU216HW,2013-10-29 19:56:00,
2013-10-29 16:01:00,40.8,32.7,30.72,NE,45,0.0,0.0,73,0.00,,,0.00,WUHU216HW,2013-10-29 20:01:00,
2013-10-29 16:06:00,40.6,32.7,30.72,NE,45,0.0,0.0,73,0.00,,,0.00,WUHU216HW,2013-10-29 20:06:00,
2013-10-29 16:11:00,40.2,32.5,30.72,NE,45,0.0,0.0,74,0.00,,,0.00,WUHU216HW,2013-10-29 20:11:00,
2013-10-29 16:16:00,40.1,32.4,30.72,NE,45,0.0,0.0,74,0.00,,,0.00,WUHU216HW,2013-10-29 20:16:00,
2013-10-29 16:21:00,39.7,32.4,30.72,NE,45,0.0,0.0,75,0.00,,,0.00,WUHU216HW,2013-10-29 20:21:00,
2013-10-29 16:26:00,39.5,32.2,30.72,NE,45,0.0,0.0,75,0.00,,,0.00,WUHU216HW,2013-10-29 20:26:00,
2013-10-29 16:31:00,39.3,32.4,30.72,NE,45,0.0,0.0,76,0.00,,,0.00,WUHU216HW,2013-10-29 20:31:00,
2013-10-29 16:36:00,39.3,32.4,30.71,NE,45,0.0,0.0,76,0.00,,,0.00,WUHU216HW,2013-10-29 20:36:00,
2013-10-29 16:41:00,39.0,32.4,30.71,NE,45,0.0,0.0,77,0.00,,,0.00,WUHU216HW,2013-10-29 20:41:00,
2013-10-29 16:46:00,39.0,32.4,30.71,NE,45,0.0,0.0,77,0.00,,,0.00,WUHU216HW,2013-10-29 20:46:00,
2013-10-29 16:51:00,39.0,32.4,30.71,NE,45,0.0,0.0,77,0.00,,,0.00,WUHU216HW,2013-10-29 20:51:00,
2013-10-29 16:56:00,39.0,32.7,30.71,NE,45,0.0,0.0,78,0.00,,,0.00,WUHU216HW,2013-10-29 20:56:00,
2013-10-29 17:01:00,39.0,32.7,30.71,NE,45,0.0,0.0,78,0.00,,,0.00,WUHU216HW,2013-10-29 21:01:00,
2013-10-29 17:06:00,39.0,32.7,30.71,NE,45,0.0,0.0,78,0.00,,,0.00,WUHU216HW,2013-10-29 21:06:00,
2013-10-29 17:11:00,39.0,32.7,30.71,NE,45,0.0,0.0,78,0.00,,,0.00,WUHU216HW,2013-10-29 21:11:00,
2013-10-29 17:16:00,39.0,33.0,30.71,NE,45,0.0,0.0,79,0.00,,,0.00,WUHU216HW,2013-10-29 21:16:00,
2013-10-29 17:21:00,38.8,32.9,30.71,NE,45,0.0,0.0,79,0.00,,,0.00,WUHU216HW,2013-10-29 21:21:00,
2013-10-29 17:26:00,39.0,33.0,30.71,NE,45,0.0,0.0,79,0.00,,,0.00,WUHU216HW,2013-10-29 21:26:00,
2013-10-29 17:31:00,38.8,32.9,30.71,NE,45,0.0,0.0,79,0.00,,,0.00,WUHU216HW,2013-10-29 21:31:00,
2013-10-29 17:36:00,38.8,32.9,30.71,NE,45,0.0,0.0,79,0.00,,,0.00,WUHU216HW,2013-10-29 21:36:00,
2013-10-29 17:41:00,38.8,32.9,30.70,NE,45,0.0,0.0,79,0.00,,,0.00,WUHU216HW,2013-10-29 21:41:00,
2013-10-29 17:46:00,38.8,32.9,30.70,NE,45,0.0,0.0,79,0.00,,,0.00,WUHU216HW,2013-10-29 21:46:00,
2013-10-29 17:51:00,38.8,33.2,30.70,NE,45,0.0,0.0,80,0.00,,,0.00,WUHU216HW,2013-10-29 21:51:00,
2013-10-29 17:56:00,38.8,33.2,30.70,NE,45,0.0,0.0,80,0.00,,,0.00,WUHU216HW,2013-10-29 21:56:00,
2013-10-29 18:01:00,38.6,33.3,30.70,NE,45,0.0,0.0,81,0.00,,,0.00,WUHU216HW,2013-10-29 22:01:00,
2013-10-29 18:06:00,38.8,33.5,30.70,NE,45,0.0,0.0,81,0.00,,,0.00,WUHU216HW,2013-10-29 22:06:00,
2013-10-29 18:11:00,38.8,33.5,30.70,NE,45,0.0,0.0,81,0.00,,,0.00,WUHU216HW,2013-10-29 22:11:00,
2013-10-29 18:16:00,38.8,33.5,30.70,NE,45,0.0,0.0,81,0.00,,,0.00,WUHU216HW,2013-10-29 22:16:00,
2013-10-29 18:21:00,38.8,33.5,30.70,NE,45,0.0,0.0,81,0.00,,,0.00,WUHU216HW,2013-10-29 22:21:00,
2013-10-29 18:26:00,38.8,33.5,30.70,NE,45,0.0,0.0,81,0.00,,,0.00,WUHU216HW,2013-10-29 22:26:00,
2013-10-29 18:31:00,38.8,33.5,30.70,NE,45,0.0,0.0,81,0.00,,,0.00,WUHU216HW,2013-10-29 22:31:00,
2013-10-29 18:36:00,38.8,33.5,30.69,NE,45,0.0,0.0,81,0.00,,,0.00,WUHU216HW,2013-10-29 22:36:00,
2013-10-29 18:41:00,38.8,33.5,30.69,NE,45,0.0,0.0,81,0.00,,,0.00,WUHU216HW,2013-10-29 22:41:00,
2013-10-29 18:46:00,38.6,33.3,30.69,NE,45,0.0,0.0,81,0.00,,,0.00,WUHU216HW,2013-10-29 22:46:00,
2013-10-29 18:51:00,38.6,33.3,30.69,NE,45,0.0,0.0,81,0.00,,,0.00,WUHU216HW,2013-10-29 22:51:00,
2013-10-29 18:56:00,38.4,33.4,30.69,NE,45,0.0,0.0,82,0.00,,,0.00,WUHU216HW,2013-10-29 22:56:00,
2013-10-29 19:01:00,38.4,33.4,30.69,NE,45,0.0,0.0,82,0.00,,,0.00,WUHU216HW,2013-10-29 23:01:00,
2013-10-29 19:06:00,38.4,33.4,30.69,NE,45,0.0,0.0,82,0.00,,,0.00,WUHU216HW,2013-10-29 23:06:00,
2013-10-29 19:11:00,38.4,33.4,30.69,NE,45,0.0,0.0,82,0.00,,,0.00,WUHU216HW,2013-10-29 23:11:00,
2013-10-29 19:16:00,38.4,33.4,30.68,NE,45,0.0,0.0,82,0.00,,,0.00,WUHU216HW,2013-10-29 23:16:00,
2013-10-29 19:21:00,38.4,33.4,30.68,NE,45,0.0,0.0,82,0.00,,,0.00,WUHU216HW,2013-10-29 23:21:00,
2013-10-29 19:26:00,38.4,33.4,30.68,NE,45,0.0,0.0,82,0.00,,,0.00,WUHU216HW,2013-10-29 23:26:00,
2013-10-29 19:31:00,38.4,33.4,30.68,NE,45,0.0,0.0,82,0.00,,,0.00,WUHU216HW,2013-10-29 23:31:00,
2013-10-29 19:36:00,38.4,33.4,30.67,NE,45,0.0,0.0,82,0.00,,,0.00,WUHU216HW,2013-10-29 23:36:00,
2013-10-29 19:41:00,38.3,33.2,30.68,NE,45,0.0,0.0,82,0.00,,,0.00,WUHU216HW,2013-10-29 23:41:00,
2013-10-29 19:46:00,38.3,33.2,30.68,NE,45,0.0,0.0,82,0.00,,,0.00,WUHU216HW,2013-10-29 23:46:00,
2013-10-29 19:51:00,38.1,33.1,30.67,NE,45,0.0,0.0,82,0.00,,,0.00,WUHU216HW,2013-10-29 23:51:00,
2013-10-29 19:56:00,38.1,33.1,30.68,NE,45,0.0,0.0,82,0.00,,,0.00,WUHU216HW,2013-10-29 23:56:00,
2013-10-29 20:01:00,37.9,33.2,30.67,NE,45,0.0,0.0,83,0.00,,,0.00,WUHU216HW,2013-10-30 00:01:00,
2013-10-29 20:06:00,37.9,33.2,30.67,NE,45,0.0,0.0,83,0.00,,,0.00,WUHU216HW,2013-10-30 00:06:00,
2013-10-29 20:11:00,37.9,33.2,30.67,NE,45,0.0,0.0,83,0.00,,,0.00,WUHU216HW,2013-10-30 00:11:00,
2013-10-29 20:16:00,37.7,33.0,30.68,NE,45,0.0,0.0,83,0.00,,,0.00,WUHU216HW,2013-10-30 00:16:00,
2013-10-29 20:21:00,37.7,33.0,30.67,NE,45,0.0,0.0,83,0.00,,,0.00,WUHU216HW,2013-10-30 00:21:00,
2013-10-29 20:26:00,37.5,32.8,30.67,NE,45,0.0,0.0,83,0.00,,,0.00,WUHU216HW,2013-10-30 00:26:00,
2013-10-29 20:31:00,37.7,33.3,30.67,NE,45,0.0,0.0,84,0.00,,,0.00,WUHU216HW,2013-10-30 00:31:00,
2013-10-29 20:36:00,37.7,33.0,30.67,NE,45,0.0,0.0,83,0.00,,,0.00,WUHU216HW,2013-10-30 00:36:00,
2013-10-29 20:41:00,37.5,33.1,30.67,NE,45,0.0,0.0,84,0.00,,,0.00,WUHU216HW,2013-10-30 00:41:00,
2013-10-29 20:46:00,37.4,32.9,30.67,NE,45,0.0,0.0,84,0.00,,,0.00,WUHU216HW,2013-10-30 00:46:00,
2013-10-29 20:51:00,37.2,32.7,30.67,NE,45,0.0,0.0,84,0.00,,,0.00,WUHU216HW,2013-10-30 00:51:00,
2013-10-29 20:56:00,37.2,32.7,30.66,NE,45,0.0,0.0,84,0.00,,,0.00,WUHU216HW,2013-10-30 00:56:00,
2013-10-29 21:01:00,37.2,32.7,30.66,NE,45,0.0,0.0,84,0.00,,,0.00,WUHU216HW,2013-10-30 01:01:00,
2013-10-29 21:06:00,37.0,32.6,30.66,NE,45,0.0,0.0,84,0.00,,,0.00,WUHU216HW,2013-10-30 01:06:00,
2013-10-29 21:11:00,36.8,32.4,30.66,NE,45,0.0,0.0,84,0.00,,,0.00,WUHU216HW,2013-10-30 01:11:00,
2013-10-29 21:16:00,36.6,32.2,30.66,NE,45,0.0,0.0,84,0.00,,,0.00,WUHU216HW,2013-10-30 01:16:00,
2013-10-29 21:21:00,36.5,32.0,30.66,NE,45,0.0,0.0,84,0.00,,,0.00,WUHU216HW,2013-10-30 01:21:00,
2013-10-29 21:26:00,36.3,31.8,30.66,NE,45,0.0,0.0,84,0.00,,,0.00,WUHU216HW,2013-10-30 01:26:00,
2013-10-29 21:31:00,36.3,31.8,30.66,NE,45,0.0,0.0,84,0.00,,,0.00,WUHU216HW,2013-10-30 01:31:00,
2013-10-29 21:36:00,36.1,31.7,30.65,NE,45,0.0,0.0,84,0.00,,,0.00,WUHU216HW,2013-10-30 01:36:00,
2013-10-29 21:41:00,36.1,31.7,30.65,NE,45,0.0,0.0,84,0.00,,,0.00,WUHU216HW,2013-10-30 01:41:00,
2013-10-29 21:46:00,36.1,31.7,30.65,NE,45,0.0,0.0,84,0.00,,,0.00,WUHU216HW,2013-10-30 01:46:00,
2013-10-29 21:51:00,35.9,31.5,30.65,NE,45,0.0,0.0,84,0.00,,,0.00,WUHU216HW,2013-10-30 01:51:00,
2013-10-29 21:56:00,35.7,31.3,30.65,NE,45,0.0,0.0,84,0.00,,,0.00,WUHU216HW,2013-10-30 01:56:00,
2013-10-29 22:01:00,35.7,31.3,30.64,NE,45,0.0,0.0,84,0.00,,,0.00,WUHU216HW,2013-10-30 02:01:00,
2013-10-29 22:06:00,35.7,31.3,30.64,NE,45,0.0,0.0,84,0.00,,,0.00,WUHU216HW,2013-10-30 02:06:00,
2013-10-29 22:11:00,35.7,31.3,30.64,NE,45,0.0,0.0,84,0.00,,,0.00,WUHU216HW,2013-10-30 02:11:00,
2013-10-29 22:16:00,35.7,31.3,30.64,NE,45,0.0,0.0,84,0.00,,,0.00,WUHU216HW,2013-10-30 02:16:00,
2013-10-29 22:21:00,35.6,31.1,30.63,NE,45,0.0,0.0,84,0.00,,,0.00,WUHU216HW,2013-10-30 02:21:00,
2013-10-29 22:26:00,35.4,30.9,30.64,NE,45,0.0,0.0,84,0.00,,,0.00,WUHU216HW,2013-10-30 02:26:00,
2013-10-29 22:31:00,35.2,30.8,30.64,NE,45,0.0,0.0,84,0.00,,,0.00,WUHU216HW,2013-10-30 02:31:00,
2013-10-29 22:36:00,35.2,30.8,30.64,NE,45,0.0,0.0,84,0.00,,,0.00,WUHU216HW,2013-10-30 02:36:00,
2013-10-29 22:41:00,35.0,30.6,30.64,NE,45,0.0,0.0,84,0.00,,,0.00,WUHU216HW,2013-10-30 02:41:00,
2013-10-29 22:46:00,34.8,30.4,30.64,NE,45,0.0,0.0,84,0.00,,,0.00,WUHU216HW,2013-10-30 02:46:00,
2013-10-29 22:51:00,34.8,30.4,30.63,NE,45,0.0,0.0,84,0.00,,,0.00,WUHU216HW,2013-10-30 02:51:00,
2013-10-29 22:56:00,34.7,30.2,30.63,NE,45,0.0,0.0,84,0.00,,,0.00,WUHU216HW,2013-10-30 02:56:00,
2013-10-29 23:01:00,34.5,30.0,30.63,NE,45,0.0,0.0,84,0.00,,,0.00,WUHU216HW,2013-10-30 03:01:00,
2013-10-29 23:06:00,34.3,29.9,30.62,NE,45,0.0,0.0,84,0.00,,,0.00,WUHU216HW,2013-10-30 03:06:00,
2013-10-29 23:11:00,34.3,29.9,30.62,NE,45,0.0,0.0,84,0.00,,,0.00,WUHU216HW,2013-10-30 03:11:00,
2013-10-29 23:16:00,34.1,29.7,30.62,NE,45,0.0,0.0,84,0.00,,,0.00,WUHU216HW,2013-10-30 03:16:00,
2013-10-29 23:21:00,34.1,30.0,30.62,NE,45,0.0,0.0,85,0.00,,,0.00,WUHU216HW,2013-10-30 03:21:00,
2013-10-29 23:26:00,34.1,30.0,30.62,NE,45,0.0,0.0,85,0.00,,,0.00,WUHU216HW,2013-10-30 03:26:00,
2013-10-29 23:31:00,34.3,30.2,30.62,NE,45,0.0,0.0,85,0.00,,,0.00,WUHU216HW,2013-10-30 03:31:00,
2013-10-29 23:36:00,34.3,30.2,30.62,NE,45,0.0,0.0,85,0.00,,,0.00,WUHU216HW,2013-10-30 03:36:00,
2013-10-29 23:41:00,34.3,30.2,30.62,NE,45,0.0,0.0,85,0.00,,,0.00,WUHU216HW,2013-10-30 03:41:00,
2013-10-29 23:46:00,34.3,30.2,30.62,NE,45,0.0,0.0,85,0.00,,,0.00,WUHU216HW,2013-10-30 03:46:00,
2013-10-29 23:51:00,34.3,30.2,30.63,NE,45,0.0,0.0,85,0.00,,,0.00,WUHU216HW,2013-10-30 03:51:00,
2013-10-29 23:56:00,34.3,30.2,30.62,NE,45,0.0,0.0,85,0.00,,,0.00,WUHU216HW,2013-10-30 03:56:00,